Regional Weather Roundup
Issued by NWS Kansas City/Pleasant Hill, MO

Home | Current Version | Previous Version | Text Only | Print | Product List | Glossary On
Versions: 1 2 3 4 5 6 7 8 9 10 11 12 13 14 15 16 17 18 19 20 21 22 23 24 25 26 27
000
ASUS43 KEAX 152010
RWREAX

WEATHER ROUNDUP FOR EASTERN KANSAS AND NORTHWEST MISSOURI
NATIONAL WEATHER SERVICE KANSAS CITY/PLEASANT HILL MO
300 PM CDT SUN OCT 15 2017

KSZ040-057-103>105-MOZ028-029-037-043-152100-
...KANSAS CITY METROPOLITAN AREA...

CITY           SKY/WX    TMP DP  RH WIND       PRES   REMARKS
K.C. INTL      SUNNY     60  40  47 NW12      30.33F
K.C. DOWNTOWN  SUNNY     61  41  47 NW10      30.32F
LEES SUMMIT    SUNNY     59  42  53 W13       30.33F
OLATHE - IXD   SUNNY     60  41  49 NW13      30.34S
OLATHE - OJC   SUNNY     59  40  49 NW8G17    30.33F
LAWRENCE       SUNNY     61  40  45 NW13      30.34F

$$

MOZ001>008-011>017-020>025-030>033-038>040-044>046-053-054-152100-
...NORTHERN AND CENTRAL MISSOURI...

CITY           SKY/WX    TMP DP  RH WIND       PRES   REMARKS
ST. JOSEPH     SUNNY     61  37  41 NW12G21   30.33F
WHITEMAN AFB   MOSUNNY   61  43  51 NW10      30.26F
CLINTON        SUNNY     63  43  48 N10       30.31F
SEDALIA        MOSUNNY   61  45  55 NW14      30.30F
WARSAW         NOT AVBL
CHILLICOTHE      N/A     61  42  49 NW12G17   30.31F
KIRKSVILLE     MOSUNNY   58  44  60 NW14G20   30.28F

$$

MOZ041-047>049-056>058-063>065-088>090-097-152100-
...EASTERN AND SOUTHERN MISSOURI...

CITY           SKY/WX    TMP DP  RH WIND       PRES   REMARKS
ST. LOUIS INTL MOSUNNY   63  46  54 NW14G20   30.20F
SPIRIT OF STL  MOSUNNY   63  46  54 NW14G25   30.21R
COLUMBIA       MOSUNNY   60  44  55 NW15G21   30.27S
JEFFERSON CITY MOSUNNY   60  40  47 NW13G24   30.27S
ROLLA          MOSUNNY   61  45  55 NW13      30.25S
OSAGE BEACH    PTSUNNY   60  45  57 NW7G18    30.29S
SPRINGFIELD    SUNNY     63  45  51 NW14G26   30.29R
BRANSON        MOSUNNY   64  41  42 NW13G20   30.27F
JOPLIN         SUNNY     62  45  53 NW12      30.33F
WEST PLAINS    SUNNY     68  43  40 N14       30.22F

$$

IAZ060-094-KSZ022-034>040-054-083-096-NEZ052-066-093-152100-
...KANSAS...SOUTHEAST NEBRASKA AND IOWA...

CITY           SKY/WX    TMP DP  RH WIND       PRES   REMARKS
TOPEKA         SUNNY     62  38  40 NW13      30.35F
MANHATTAN      SUNNY     62  34  35 NW9       30.37F
EMPORIA        SUNNY     61  35  37 NW12G20   30.37F
CHANUTE        SUNNY     63  39  41 N14       30.35F
WICHITA        SUNNY     62  36  37 NW15      30.40F
OMAHA          SUNNY     59  33  37 W9        30.32F
LINCOLN        SUNNY     60  29  30 W10       30.35F
FALLS CITY     SUNNY     59  35  40 NW10      30.34F
LAMONI         MOSUNNY   57  41  55 NW16      30.29F
DES MOINES     MOSUNNY   58  37  45 NW20      30.26S

$$





USA.gov is the U.S. government's official web portal to all federal, state and local government web resources and services.